Location: Ferchesar
(52.6477°N, 12.4298°E)
Time: 04:37:11
(UTC+02:00)

Vanguard 3 - Pass Details

Date: 05 March 2021
Orbit: 508 x 3262 km, 33.3° (Epoch: 15 April)

Event Time Altitude Azimuth Distance (km) Brightness Sun altitude
Rises 15:38:33 0° 235° (SW) 7,220 13.7 18.3°
Reaches altitude 10° 15:44:10 10° 228° (SW) 6,171 14.1 17.6°
Maximum altitude 15:59:59 34° 173° (S) 3,887 11.1 15.6°
Drops below altitude 10° 16:11:39 10° 115° (ESE) 4,569 10.7 14.1°
Sets 16:15:03 0° 107° (ESE) 5,211 10.9 13.7°
